Time,TemperatureF,DewpointF,PressureIn,WindDirection,WindDirectionDegrees,WindSpeedMPH,WindSpeedGustMPH,Humidity,HourlyPrecipIn,Conditions,Clouds,dailyrainin,SoftwareType,DateUTC
2013-05-15 00:05:00,78.1,56.2,29.69,North,11,2.0,2.0,47,0.00,,,0.00,Wunderground v.1.15,2013-05-15 05:05:00,
2013-05-15 00:15:00,77.6,55.8,29.70,NNE,12,1.0,2.0,47,0.00,,,0.00,Wunderground v.1.15,2013-05-15 05:15:00,
2013-05-15 00:20:00,77.5,55.7,29.70,NNE,12,1.0,1.0,47,0.00,,,0.00,Wunderground v.1.15,2013-05-15 05:20:00,
2013-05-15 00:30:00,77.1,55.9,29.71,NNE,17,1.0,2.0,48,0.00,,,0.00,Wunderground v.1.15,2013-05-15 05:30:00,
2013-05-15 00:35:00,76.8,55.6,29.72,East,85,3.0,3.0,48,0.00,,,0.00,Wunderground v.1.15,2013-05-15 05:35:00,
2013-05-15 00:45:00,76.3,54.6,29.71,East,85,2.0,3.0,47,0.00,,,0.00,Wunderground v.1.15,2013-05-15 05:45:00,
2013-05-15 00:50:00,76.0,54.9,29.72,East,85,2.0,5.0,48,0.00,,,0.00,Wunderground v.1.15,2013-05-15 05:50:00,
2013-05-15 01:00:00,75.3,51.9,29.72,NNE,32,4.0,7.0,44,0.00,,,0.00,Wunderground v.1.15,2013-05-15 06:00:00,
2013-05-15 01:05:00,75.0,49.0,29.72,NNE,31,6.0,7.0,40,0.00,,,0.00,Wunderground v.1.15,2013-05-15 06:05:00,
2013-05-15 01:15:00,75.0,46.2,29.72,NNE,28,9.0,10.0,36,0.00,,,0.00,Wunderground v.1.15,2013-05-15 06:15:00,
2013-05-15 01:25:00,75.4,44.3,29.72,NNE,30,7.0,8.0,33,0.00,,,0.00,Wunderground v.1.15,2013-05-15 06:25:00,
2013-05-15 01:35:00,75.7,43.7,29.72,NE,35,6.0,7.0,32,0.00,,,0.00,Wunderground v.1.15,2013-05-15 06:35:00,
2013-05-15 01:40:00,75.8,42.1,29.73,NE,49,6.0,6.0,30,0.00,,,0.00,Wunderground v.1.15,2013-05-15 06:40:00,
2013-05-15 01:50:00,76.0,42.3,29.73,ENE,59,6.0,6.0,30,0.00,,,0.00,Wunderground v.1.15,2013-05-15 06:50:00,
2013-05-15 01:55:00,76.0,42.3,29.73,NNE,28,5.0,6.0,30,0.00,,,0.00,Wunderground v.1.15,2013-05-15 06:55:00,
2013-05-15 02:05:00,76.0,41.4,29.73,NNE,27,6.0,7.0,29,0.00,,,0.00,Wunderground v.1.15,2013-05-15 07:05:00,
2013-05-15 02:15:00,75.9,41.3,29.73,NE,40,5.0,5.0,29,0.00,,,0.00,Wunderground v.1.15,2013-05-15 07:15:00,
2013-05-15 02:20:00,75.8,41.3,29.73,NE,56,6.0,6.0,29,0.00,,,0.00,Wunderground v.1.15,2013-05-15 07:20:00,
2013-05-15 02:30:00,75.7,41.2,29.73,NE,38,6.0,10.0,29,0.00,,,0.00,Wunderground v.1.15,2013-05-15 07:30:00,
2013-05-15 02:35:00,75.6,41.1,29.73,NE,40,5.0,10.0,29,0.00,,,0.00,Wunderground v.1.15,2013-05-15 07:35:00,
2013-05-15 02:45:00,75.3,41.7,29.73,NNE,32,5.0,7.0,30,0.00,,,0.00,Wunderground v.1.15,2013-05-15 07:45:00,
2013-05-15 02:50:00,75.1,41.5,29.73,NE,34,5.0,5.0,30,0.00,,,0.00,Wunderground v.1.15,2013-05-15 07:50:00,
2013-05-15 03:00:00,74.7,41.2,29.73,NNE,29,6.0,6.0,30,0.00,,,0.00,Wunderground v.1.15,2013-05-15 08:00:00,
2013-05-15 03:05:00,74.4,40.9,29.73,NE,50,6.0,6.0,30,0.00,,,0.00,Wunderground v.1.15,2013-05-15 08:05:00,
2013-05-15 03:15:00,74.1,40.7,29.73,NNE,19,4.0,7.0,30,0.00,,,0.00,Wunderground v.1.15,2013-05-15 08:15:00,
2013-05-15 03:20:00,74.0,41.4,29.73,NE,46,4.0,4.0,31,0.00,,,0.00,Wunderground v.1.15,2013-05-15 08:20:00,
2013-05-15 03:30:00,73.5,41.0,29.73,ENE,63,3.0,4.0,31,0.00,,,0.00,Wunderground v.1.15,2013-05-15 08:30:00,
2013-05-15 03:35:00,73.3,41.6,29.73,ENE,66,4.0,8.0,32,0.00,,,0.00,Wunderground v.1.15,2013-05-15 08:35:00,
2013-05-15 03:45:00,72.9,41.3,29.73,ENE,77,5.0,5.0,32,0.00,,,0.00,Wunderground v.1.15,2013-05-15 08:45:00,
2013-05-15 03:50:00,72.7,41.1,29.73,NE,38,4.0,4.0,32,0.00,,,0.00,Wunderground v.1.15,2013-05-15 08:50:00,
2013-05-15 04:00:00,72.2,42.3,29.73,ENE,65,4.0,4.0,34,0.00,,,0.00,Wunderground v.1.15,2013-05-15 09:00:00,
2013-05-15 04:05:00,72.0,42.1,29.73,NE,49,4.0,4.0,34,0.00,,,0.00,Wunderground v.1.15,2013-05-15 09:05:00,
2013-05-15 04:15:00,71.4,42.3,29.74,ENE,68,4.0,5.0,35,0.00,,,0.00,Wunderground v.1.15,2013-05-15 09:15:00,
2013-05-15 04:25:00,70.8,43.2,29.74,NE,34,4.0,6.0,37,0.00,,,0.00,Wunderground v.1.15,2013-05-15 09:25:00,
2013-05-15 04:30:00,70.5,43.0,29.75,East,82,4.0,7.0,37,0.00,,,0.00,Wunderground v.1.15,2013-05-15 09:30:00,
2013-05-15 04:40:00,69.8,43.0,29.75,ENE,74,5.0,5.0,38,0.00,,,0.00,Wunderground v.1.15,2013-05-15 09:40:00,
2013-05-15 04:45:00,69.4,42.7,29.75,ENE,59,5.0,5.0,38,0.00,,,0.00,Wunderground v.1.15,2013-05-15 09:45:00,
2013-05-15 04:55:00,68.8,42.8,29.75,NNE,20,6.0,9.0,39,0.00,,,0.00,Wunderground v.1.15,2013-05-15 09:55:00,
2013-05-15 05:00:00,68.4,42.5,29.75,NNE,32,8.0,12.0,39,0.00,,,0.00,Wunderground v.1.15,2013-05-15 10:00:00,
2013-05-15 05:10:00,67.9,42.0,29.75,ENE,62,9.0,10.0,39,0.00,,,0.00,Wunderground v.1.15,2013-05-15 10:10:00,
2013-05-15 05:20:00,67.5,41.7,29.76,NE,39,10.0,10.0,39,0.00,,,0.00,Wunderground v.1.15,2013-05-15 10:20:00,
2013-05-15 05:25:00,67.4,41.6,29.76,NNE,29,10.0,15.0,39,0.00,,,0.00,Wunderground v.1.15,2013-05-15 10:25:00,
2013-05-15 05:30:00,67.2,42.0,29.77,ENE,65,11.0,11.0,40,0.00,,,0.00,Wunderground v.1.15,2013-05-15 10:30:00,
2013-05-15 05:40:00,66.9,42.4,29.77,NE,34,11.0,13.0,41,0.00,,,0.00,Wunderground v.1.15,2013-05-15 10:40:00,
2013-05-15 05:50:00,66.5,43.3,29.78,NNE,12,12.0,12.0,43,0.00,,,0.00,Wunderground v.1.15,2013-05-15 10:50:00,
2013-05-15 05:55:00,66.3,43.7,29.78,NE,36,11.0,12.0,44,0.00,,,0.00,Wunderground v.1.15,2013-05-15 10:55:00,
2013-05-15 06:10:00,65.6,44.3,29.79,NE,44,11.0,11.0,46,0.00,,,0.00,Wunderground v.1.15,2013-05-15 11:10:00,
2013-05-15 06:20:00,65.0,44.3,29.79,NE,42,12.0,19.0,47,0.00,,,0.00,Wunderground v.1.15,2013-05-15 11:20:00,
2013-05-15 06:30:00,64.5,44.4,29.79,NE,47,13.0,13.0,48,0.00,,,0.00,Wunderground v.1.15,2013-05-15 11:30:00,
2013-05-15 06:35:00,64.3,44.7,29.79,NNE,28,11.0,13.0,49,0.00,,,0.00,Wunderground v.1.15,2013-05-15 11:35:00,
2013-05-15 06:50:00,63.9,44.9,29.79,ENE,76,8.0,9.0,50,0.00,,,0.00,Wunderground v.1.15,2013-05-15 11:50:00,
2013-05-15 07:00:00,63.7,45.2,29.80,NE,49,8.0,8.0,51,0.00,,,0.00,Wunderground v.1.15,2013-05-15 12:00:00,
2013-05-15 07:05:00,63.5,45.6,29.79,NE,42,8.0,8.0,52,0.00,,,0.00,Wunderground v.1.15,2013-05-15 12:05:00,
2013-05-15 07:15:00,63.4,46.0,29.79,East,90,8.0,10.0,53,0.00,,,0.00,Wunderground v.1.15,2013-05-15 12:15:00,
2013-05-15 07:20:00,63.3,45.9,29.80,NE,44,8.0,11.0,53,0.00,,,0.00,Wunderground v.1.15,2013-05-15 12:20:00,
2013-05-15 07:25:00,63.3,46.4,29.79,ENE,65,8.0,11.0,54,0.00,,,0.00,Wunderground v.1.15,2013-05-15 12:25:00,
2013-05-15 07:30:00,63.4,46.5,29.79,NE,40,8.0,8.0,54,0.00,,,0.00,Wunderground v.1.15,2013-05-15 12:30:00,
2013-05-15 07:40:00,63.5,46.6,29.79,East,86,9.0,9.0,54,0.00,,,0.00,Wunderground v.1.15,2013-05-15 12:40:00,
2013-05-15 07:45:00,63.6,46.6,29.79,ENE,57,8.0,9.0,54,0.00,,,0.00,Wunderground v.1.15,2013-05-15 12:45:00,
2013-05-15 07:55:00,63.9,46.4,29.79,NE,54,9.0,10.0,53,0.00,,,0.00,Wunderground v.1.15,2013-05-15 12:55:00,
2013-05-15 08:00:00,64.0,46.5,29.79,ENE,76,9.0,10.0,53,0.00,,,0.00,Wunderground v.1.15,2013-05-15 13:00:00,
2013-05-15 08:05:00,64.2,46.7,29.80,ENE,57,8.0,10.0,53,0.00,,,0.00,Wunderground v.1.15,2013-05-15 13:05:00,
2013-05-15 08:15:00,64.5,46.5,29.80,NE,38,9.0,9.0,52,0.00,,,0.00,Wunderground v.1.15,2013-05-15 13:15:00,
2013-05-15 08:20:00,64.8,47.3,29.80,ENE,78,8.0,11.0,53,0.00,,,0.00,Wunderground v.1.15,2013-05-15 13:20:00,
2013-05-15 08:30:00,65.3,47.2,29.81,ENE,59,8.0,11.0,52,0.00,,,0.00,Wunderground v.1.15,2013-05-15 13:30:00,
2013-05-15 08:35:00,65.6,47.5,29.81,NE,38,7.0,11.0,52,0.00,,,0.00,Wunderground v.1.15,2013-05-15 13:35:00,
2013-05-15 08:45:00,66.7,48.5,29.82,NE,36,7.0,11.0,52,0.00,,,0.00,Wunderground v.1.15,2013-05-15 13:45:00,
2013-05-15 08:55:00,67.9,48.6,29.83,NE,40,7.0,7.0,50,0.00,,,0.00,Wunderground v.1.15,2013-05-15 13:55:00,
2013-05-15 09:00:00,68.5,48.6,29.83,NNE,16,7.0,14.0,49,0.00,,,0.00,Wunderground v.1.15,2013-05-15 14:00:00,
2013-05-15 09:05:00,68.9,48.4,29.83,ENE,57,7.0,14.0,48,0.00,,,0.00,Wunderground v.1.15,2013-05-15 14:05:00,
2013-05-15 09:15:00,69.7,49.1,29.84,NNE,30,7.0,9.0,48,0.00,,,0.00,Wunderground v.1.15,2013-05-15 14:15:00,
2013-05-15 09:20:00,69.7,48.0,29.84,NNE,21,7.0,13.0,46,0.00,,,0.00,Wunderground v.1.15,2013-05-15 14:20:00,
2013-05-15 09:25:00,70.0,48.8,29.84,NNE,16,8.0,13.0,47,0.00,,,0.00,Wunderground v.1.15,2013-05-15 14:25:00,
2013-05-15 09:35:00,70.6,48.2,29.84,NE,46,10.0,15.0,45,0.00,,,0.00,Wunderground v.1.15,2013-05-15 14:35:00,
2013-05-15 09:40:00,71.0,48.6,29.84,NE,55,9.0,9.0,45,0.00,,,0.00,Wunderground v.1.15,2013-05-15 14:40:00,
2013-05-15 09:50:00,71.2,47.6,29.84,NE,48,12.0,14.0,43,0.00,,,0.00,Wunderground v.1.15,2013-05-15 14:50:00,
2013-05-15 10:00:00,71.8,47.5,29.83,NE,56,12.0,12.0,42,0.00,,,0.00,Wunderground v.1.15,2013-05-15 15:00:00,
2013-05-15 10:05:00,72.0,47.6,29.84,ENE,57,12.0,12.0,42,0.00,,,0.00,Wunderground v.1.15,2013-05-15 15:05:00,
2013-05-15 10:15:00,73.0,46.6,29.84,NE,44,11.0,15.0,39,0.00,,,0.00,Wunderground v.1.15,2013-05-15 15:15:00,
2013-05-15 10:20:00,73.1,46.0,29.84,East,88,12.0,15.0,38,0.00,,,0.00,Wunderground v.1.15,2013-05-15 15:20:00,
2013-05-15 10:30:00,73.7,45.8,29.84,NE,53,13.0,13.0,37,0.00,,,0.00,Wunderground v.1.15,2013-05-15 15:30:00,
2013-05-15 10:40:00,74.5,46.5,29.84,NE,49,10.0,10.0,37,0.00,,,0.00,Wunderground v.1.15,2013-05-15 15:40:00,
2013-05-15 10:45:00,75.2,47.1,29.84,NNE,31,10.0,10.0,37,0.00,,,0.00,Wunderground v.1.15,2013-05-15 15:45:00,
2013-05-15 10:55:00,75.5,47.4,29.84,NE,42,10.0,14.0,37,0.00,,,0.00,Wunderground v.1.15,2013-05-15 15:55:00,
2013-05-15 11:00:00,76.4,48.9,29.84,North,360,9.0,15.0,38,0.00,,,0.00,Wunderground v.1.15,2013-05-15 16:00:00,
2013-05-15 11:05:00,76.2,46.5,29.83,NE,34,9.0,15.0,35,0.00,,,0.00,Wunderground v.1.15,2013-05-15 16:05:00,
2013-05-15 11:15:00,76.8,47.1,29.82,East,88,11.0,14.0,35,0.00,,,0.00,Wunderground v.1.15,2013-05-15 16:15:00,
2013-05-15 11:25:00,77.5,48.4,29.83,NNE,32,9.0,9.0,36,0.00,,,0.00,Wunderground v.1.15,2013-05-15 16:25:00,
2013-05-15 11:30:00,77.9,47.3,29.83,ENE,72,9.0,10.0,34,0.00,,,0.00,Wunderground v.1.15,2013-05-15 16:30:00,
2013-05-15 11:40:00,77.9,47.3,29.82,East,86,9.0,9.0,34,0.00,,,0.00,Wunderground v.1.15,2013-05-15 16:40:00,
2013-05-15 11:50:00,79.1,48.3,29.83,ENE,66,9.0,9.0,34,0.00,,,0.00,Wunderground v.1.15,2013-05-15 16:50:00,
2013-05-15 11:55:00,79.3,47.7,29.83,ENE,60,8.0,9.0,33,0.00,,,0.00,Wunderground v.1.15,2013-05-15 16:55:00,
2013-05-15 12:00:00,79.2,46.8,29.83,NE,43,9.0,14.0,32,0.00,,,0.00,Wunderground v.1.15,2013-05-15 17:00:00,
2013-05-15 12:05:00,79.6,49.5,29.83,ENE,78,9.0,14.0,35,0.00,,,0.00,Wunderground v.1.15,2013-05-15 17:05:00,
2013-05-15 12:10:00,80.2,49.3,29.83,East,99,8.0,15.0,34,0.00,,,0.00,Wunderground v.1.15,2013-05-15 17:10:00,
2013-05-15 12:20:00,80.0,45.8,29.83,ENE,61,10.0,10.0,30,0.00,,,0.00,Wunderground v.1.15,2013-05-15 17:20:00,
2013-05-15 12:25:00,79.9,46.6,29.83,ENE,67,10.0,13.0,31,0.00,,,0.00,Wunderground v.1.15,2013-05-15 17:25:00,
2013-05-15 12:35:00,79.8,45.6,29.82,ENE,75,10.0,10.0,30,0.00,,,0.00,Wunderground v.1.15,2013-05-15 17:35:00,
2013-05-15 12:40:00,79.9,46.6,29.82,East,84,10.0,10.0,31,0.00,,,0.00,Wunderground v.1.15,2013-05-15 17:40:00,
2013-05-15 12:50:00,81.1,46.7,29.81,ENE,67,8.0,10.0,30,0.00,,,0.00,Wunderground v.1.15,2013-05-15 17:50:00,
2013-05-15 13:00:00,81.5,47.1,29.81,NE,55,7.0,9.0,30,0.00,,,0.00,Wunderground v.1.15,2013-05-15 18:00:00,
2013-05-15 13:10:00,81.4,48.7,29.81,NE,52,10.0,10.0,32,0.00,,,0.00,Wunderground v.1.15,2013-05-15 18:10:00,
2013-05-15 13:15:00,81.5,50.4,29.80,East,81,10.0,10.0,34,0.00,,,0.00,Wunderground v.1.15,2013-05-15 18:15:00,
2013-05-15 13:30:00,81.3,48.6,29.79,East,91,10.0,14.0,32,0.00,,,0.00,Wunderground v.1.15,2013-05-15 18:30:00,
2013-05-15 13:40:00,82.2,50.2,29.79,ENE,76,9.0,9.0,33,0.00,,,0.00,Wunderground v.1.15,2013-05-15 18:40:00,
2013-05-15 13:50:00,82.4,47.8,29.78,East,101,9.0,9.0,30,0.00,,,0.00,Wunderground v.1.15,2013-05-15 18:50:00,
2013-05-15 14:00:00,82.7,48.1,29.78,East,93,10.0,10.0,30,0.00,,,0.00,Wunderground v.1.15,2013-05-15 19:00:00,
2013-05-15 14:05:00,83.6,49.8,29.78,ESE,104,8.0,10.0,31,0.00,,,0.00,Wunderground v.1.15,2013-05-15 19:05:00,
2013-05-15 14:20:00,83.3,49.5,29.77,ENE,65,10.0,12.0,31,0.00,,,0.00,Wunderground v.1.15,2013-05-15 19:20:00,
2013-05-15 14:30:00,83.1,48.5,29.77,NE,51,11.0,14.0,30,0.00,,,0.00,Wunderground v.1.15,2013-05-15 19:30:00,
2013-05-15 14:40:00,83.5,48.8,29.77,NE,56,9.0,9.0,30,0.00,,,0.00,Wunderground v.1.15,2013-05-15 19:40:00,
2013-05-15 14:50:00,84.5,49.7,29.76,ENE,69,8.0,8.0,30,0.00,,,0.00,Wunderground v.1.15,2013-05-15 19:50:00,
2013-05-15 14:55:00,84.5,47.8,29.76,NE,55,8.0,8.0,28,0.00,,,0.00,Wunderground v.1.15,2013-05-15 19:55:00,
2013-05-15 15:10:00,83.5,49.7,29.76,East,87,8.0,13.0,31,0.00,,,0.00,Wunderground v.1.15,2013-05-15 20:10:00,
2013-05-15 15:20:00,83.8,47.2,29.76,ENE,76,7.0,7.0,28,0.00,,,0.00,Wunderground v.1.15,2013-05-15 20:20:00,
2013-05-15 15:30:00,84.3,50.4,29.75,ESE,113,6.0,8.0,31,0.00,,,0.00,Wunderground v.1.15,2013-05-15 20:30:00,
2013-05-15 15:35:00,83.4,46.9,29.76,ESE,106,7.0,8.0,28,0.00,,,0.00,Wunderground v.1.15,2013-05-15 20:35:00,
2013-05-15 15:45:00,83.6,49.8,29.76,East,97,6.0,10.0,31,0.00,,,0.00,Wunderground v.1.15,2013-05-15 20:45:00,
2013-05-15 15:55:00,84.1,51.9,29.75,East,80,7.0,10.0,33,0.00,,,0.00,Wunderground v.1.15,2013-05-15 20:55:00,
2013-05-15 16:05:00,84.5,48.8,29.75,East,90,8.0,12.0,29,0.00,,,0.00,Wunderground v.1.15,2013-05-15 21:05:00,
2013-05-15 16:20:00,84.0,47.4,29.75,East,85,8.0,8.0,28,0.00,,,0.00,Wunderground v.1.15,2013-05-15 21:20:00,
2013-05-15 16:30:00,83.6,47.0,29.75,SSE,148,7.0,7.0,28,0.00,,,0.00,Wunderground v.1.15,2013-05-15 21:30:00,
2013-05-15 16:35:00,84.4,51.3,29.75,East,83,5.0,8.0,32,0.00,,,0.00,Wunderground v.1.15,2013-05-15 21:35:00,
2013-05-15 16:45:00,83.7,49.9,29.75,East,92,5.0,9.0,31,0.00,,,0.00,Wunderground v.1.15,2013-05-15 21:45:00,
2013-05-15 16:50:00,83.6,50.6,29.75,ESE,103,6.0,6.0,32,0.00,,,0.00,Wunderground v.1.15,2013-05-15 21:50:00,
2013-05-15 17:00:00,83.8,49.1,29.75,ENE,64,6.0,9.0,30,0.00,,,0.00,Wunderground v.1.15,2013-05-15 22:00:00,
2013-05-15 17:05:00,83.9,50.9,29.76,SE,135,5.0,9.0,32,0.00,,,0.00,Wunderground v.1.15,2013-05-15 22:05:00,
2013-05-15 17:20:00,83.5,49.7,29.75,East,86,5.0,8.0,31,0.00,,,0.00,Wunderground v.1.15,2013-05-15 22:20:00,
2013-05-15 17:35:00,82.8,49.9,29.75,East,90,6.0,10.0,32,0.00,,,0.00,Wunderground v.1.15,2013-05-15 22:35:00,
2013-05-15 17:45:00,82.5,50.5,29.75,SE,137,6.0,13.0,33,0.00,,,0.00,Wunderground v.1.15,2013-05-15 22:45:00,
2013-05-15 17:50:00,82.5,49.7,29.75,East,101,6.0,6.0,32,0.00,,,0.00,Wunderground v.1.15,2013-05-15 22:50:00,
2013-05-15 18:00:00,82.0,50.9,29.75,NE,53,4.0,9.0,34,0.00,,,0.00,Wunderground v.1.15,2013-05-15 23:00:00,
2013-05-15 18:05:00,81.7,47.2,29.75,ESE,114,6.0,9.0,30,0.00,,,0.00,Wunderground v.1.15,2013-05-15 23:05:00,
2013-05-15 18:15:00,81.4,48.7,29.75,East,89,7.0,10.0,32,0.00,,,0.00,Wunderground v.1.15,2013-05-15 23:15:00,
2013-05-15 18:40:00,81.1,49.3,29.75,East,92,6.0,6.0,33,0.00,,,0.00,Wunderground v.1.15,2013-05-15 23:40:00,
2013-05-15 18:50:00,80.8,48.2,29.75,ENE,72,5.0,8.0,32,0.00,,,0.00,Wunderground v.1.15,2013-05-15 23:50:00,
2013-05-15 19:00:00,80.4,47.0,29.75,East,91,6.0,6.0,31,0.00,,,0.00,Wunderground v.1.15,2013-05-16 00:00:00,
2013-05-15 19:05:00,80.3,46.9,29.75,ENE,62,6.0,6.0,31,0.00,,,0.00,Wunderground v.1.15,2013-05-16 00:05:00,
2013-05-15 19:15:00,80.2,48.5,29.74,East,96,4.0,5.0,33,0.00,,,0.00,Wunderground v.1.15,2013-05-16 00:15:00,
2013-05-15 19:25:00,80.0,48.3,29.74,East,92,6.0,7.0,33,0.00,,,0.00,Wunderground v.1.15,2013-05-16 00:25:00,
2013-05-15 19:35:00,79.4,48.6,29.74,ENE,75,4.0,5.0,34,0.00,,,0.00,Wunderground v.1.15,2013-05-16 00:35:00,
2013-05-15 19:40:00,79.1,48.3,29.74,East,90,5.0,5.0,34,0.00,,,0.00,Wunderground v.1.15,2013-05-16 00:40:00,
2013-05-15 19:50:00,78.4,47.7,29.74,East,79,4.0,7.0,34,0.00,,,0.00,Wunderground v.1.15,2013-05-16 00:50:00,
2013-05-15 19:55:00,78.1,47.4,29.73,East,90,4.0,7.0,34,0.00,,,0.00,Wunderground v.1.15,2013-05-16 00:55:00,
2013-05-15 20:05:00,77.5,47.7,29.74,ENE,68,4.0,5.0,35,0.00,,,0.00,Wunderground v.1.15,2013-05-16 01:05:00,
2013-05-15 20:15:00,76.9,47.9,29.73,ENE,72,2.0,3.0,36,0.00,,,0.00,Wunderground v.1.15,2013-05-16 01:15:00,
2013-05-15 20:25:00,76.2,46.5,29.74,East,84,3.0,8.0,35,0.00,,,0.00,Wunderground v.1.15,2013-05-16 01:25:00,
2013-05-15 20:30:00,76.0,47.1,29.74,ENE,76,4.0,4.0,36,0.00,,,0.00,Wunderground v.1.15,2013-05-16 01:30:00,
2013-05-15 20:40:00,75.3,46.5,29.74,East,86,5.0,5.0,36,0.00,,,0.00,Wunderground v.1.15,2013-05-16 01:40:00,
2013-05-15 20:45:00,75.1,47.0,29.74,East,82,5.0,5.0,37,0.00,,,0.00,Wunderground v.1.15,2013-05-16 01:45:00,
2013-05-15 20:55:00,74.4,46.4,29.74,East,84,4.0,4.0,37,0.00,,,0.00,Wunderground v.1.15,2013-05-16 01:55:00,
2013-05-15 21:05:00,73.8,46.6,29.75,ENE,78,5.0,5.0,38,0.00,,,0.00,Wunderground v.1.15,2013-05-16 02:05:00,
2013-05-15 21:20:00,73.1,46.7,29.75,East,88,6.0,7.0,39,0.00,,,0.00,Wunderground v.1.15,2013-05-16 02:20:00,
2013-05-15 21:25:00,72.9,46.5,29.75,East,86,6.0,7.0,39,0.00,,,0.00,Wunderground v.1.15,2013-05-16 02:25:00,
2013-05-15 21:30:00,72.7,47.0,29.75,East,93,6.0,9.0,40,0.00,,,0.00,Wunderground v.1.15,2013-05-16 02:30:00,
2013-05-15 21:40:00,72.3,47.3,29.76,East,98,6.0,6.0,41,0.00,,,0.00,Wunderground v.1.15,2013-05-16 02:40:00,
2013-05-15 21:50:00,72.0,47.0,29.77,East,87,6.0,6.0,41,0.00,,,0.00,Wunderground v.1.15,2013-05-16 02:50:00,
2013-05-15 21:55:00,71.7,46.7,29.77,ESE,103,6.0,6.0,41,0.00,,,0.00,Wunderground v.1.15,2013-05-16 02:55:00,
2013-05-15 22:05:00,71.5,47.2,29.76,East,90,5.0,5.0,42,0.00,,,0.00,Wunderground v.1.15,2013-05-16 03:05:00,
2013-05-15 22:15:00,71.2,46.9,29.77,East,91,5.0,7.0,42,0.00,,,0.00,Wunderground v.1.15,2013-05-16 03:15:00,
2013-05-15 22:20:00,71.0,46.7,29.77,East,92,6.0,8.0,42,0.00,,,0.00,Wunderground v.1.15,2013-05-16 03:20:00,
2013-05-15 22:30:00,70.8,47.2,29.77,East,94,5.0,5.0,43,0.00,,,0.00,Wunderground v.1.15,2013-05-16 03:30:00,
2013-05-15 22:40:00,70.5,46.9,29.77,East,93,4.0,5.0,43,0.00,,,0.00,Wunderground v.1.15,2013-05-16 03:40:00,
2013-05-15 22:45:00,70.4,46.8,29.77,East,94,4.0,5.0,43,0.00,,,0.00,Wunderground v.1.15,2013-05-16 03:45:00,
2013-05-15 22:55:00,70.1,47.2,29.77,East,94,3.0,4.0,44,0.00,,,0.00,Wunderground v.1.15,2013-05-16 03:55:00,
2013-05-15 23:05:00,69.8,47.5,29.77,East,97,4.0,6.0,45,0.00,,,0.00,Wunderground v.1.15,2013-05-16 04:05:00,
2013-05-15 23:10:00,69.7,48.0,29.78,East,97,4.0,4.0,46,0.00,,,0.00,Wunderground v.1.15,2013-05-16 04:10:00,
2013-05-15 23:15:00,69.5,47.8,29.78,East,93,4.0,4.0,46,0.00,,,0.00,Wunderground v.1.15,2013-05-16 04:15:00,
2013-05-15 23:20:00,69.4,47.7,29.78,East,86,3.0,3.0,46,0.00,,,0.00,Wunderground v.1.15,2013-05-16 04:20:00,
2013-05-15 23:25:00,69.3,47.6,29.78,East,86,3.0,3.0,46,0.00,,,0.00,Wunderground v.1.15,2013-05-16 04:25:00,
2013-05-15 23:30:00,69.2,47.5,29.79,East,90,4.0,4.0,46,0.00,,,0.00,Wunderground v.1.15,2013-05-16 04:30:00,
2013-05-15 23:40:00,69.2,47.5,29.79,East,87,3.0,3.0,46,0.00,,,0.00,Wunderground v.1.15,2013-05-16 04:40:00,
2013-05-15 23:45:00,69.2,46.9,29.80,East,86,2.0,3.0,45,0.00,,,0.00,Wunderground v.1.15,2013-05-16 04:45:00,
2013-05-15 23:55:00,69.5,47.2,29.79,ESE,113,2.0,5.0,45,0.00,,,0.00,Wunderground v.1.15,2013-05-16 04:55:00,